Location: Freistadt
(48.5112°N, 14.5013°E)
Time: 22:02:16
(UTC+02:00)

O/OREOS (USA 219) - Pass Details

Date: 04 April 2023
Orbit: 621 x 646 km, 72.0° (Epoch: 22 May)

Event Time Altitude Azimuth Distance (km) Brightness Sun altitude
Exits shadow 05:19:33 13° 210° (SSW) 1,846 ? -12.7°
Maximum altitude 05:23:39 79° 296° (WNW) 657 ? -12.1°
Drops below altitude 10° 05:28:14 10° 24° (NNE) 2,030 ? -11.4°
Sets 05:30:30 0° 26° (NNE) 2,938 ? -11.1°
